DHK357 LFPG-EGNX

Flight info

Callsign DHK357
Flight time 0h 54m
Altitude 26000
Route OPALE DCT KESAX DCT DIMAL DCT ALESO T420 HEMEL
Aircraft B738/M-SDE2E3FGHIRWXY/LB1

Departure

Time 2026-05-04 21:16
Airport Charles de Gaulle International Airport (LFPG)

Arrival

Time 2026-05-04 22:10
Airport East Midlands Airport (EGNX)
Time Latitude Longitude Altitude Speed Heading
2026-05-04 20:54 49.01407 2.52007 355 ft 0 kts 161°
2026-05-04 21:03 49.01426 2.51997 364 ft 4 kts 156°
2026-05-04 21:04 49.01451 2.51984 363 ft 4 kts 178°
2026-05-04 21:04 49.01478 2.51982 360 ft 4 kts 176°
2026-05-04 21:04 49.01503 2.51983 357 ft 2 kts 193°
2026-05-04 21:04 49.01504 2.51983 357 ft 1 kts 193°
2026-05-04 21:08 49.01501 2.51981 355 ft 0 kts 198°
2026-05-04 21:09 49.01495 2.51984 363 ft 1 kts 173°
2026-05-04 21:09 49.01495 2.51995 362 ft 1 kts 80°
2026-05-04 21:09 49.01503 2.51995 363 ft 1 kts 347°
2026-05-04 21:09 49.01509 2.51968 355 ft 6 kts 275°
2026-05-04 21:10 49.01506 2.51893 357 ft 8 kts 266°
2026-05-04 21:10 49.01502 2.51804 358 ft 11 kts 266°
2026-05-04 21:10 49.01497 2.51664 356 ft 14 kts 266°
2026-05-04 21:10 49.01488 2.51520 360 ft 13 kts 263°
2026-05-04 21:11 49.01484 2.51382 353 ft 13 kts 284°
2026-05-04 21:11 49.01545 2.51297 356 ft 13 kts 347°
2026-05-04 21:11 49.01631 2.51284 353 ft 12 kts 358°
2026-05-04 21:11 49.01715 2.51276 358 ft 12 kts 353°
2026-05-04 21:12 49.01797 2.51268 353 ft 12 kts
2026-05-04 21:12 49.01886 2.51257 361 ft 13 kts 353°
2026-05-04 21:12 49.01975 2.51263 353 ft 13 kts 22°
2026-05-04 21:12 49.02046 2.51337 359 ft 12 kts 39°
2026-05-04 21:13 49.02070 2.51426 353 ft 1 kts 85°
2026-05-04 21:13 49.02070 2.51431 353 ft 0 kts 84°
2026-05-04 21:15 49.02071 2.51440 353 ft 5 kts 84°
2026-05-04 21:15 49.02095 2.51879 351 ft 82 kts 85°
2026-05-04 21:15 49.02159 2.53108 357 ft 148 kts 84°
2026-05-04 21:15 49.02257 2.54793 880 ft 159 kts 84°
2026-05-04 21:16 49.02328 2.56428 1832 ft 153 kts 85°
2026-05-04 21:16 49.02392 2.58101 2435 ft 168 kts 85°
2026-05-04 21:16 49.02487 2.60016 2787 ft 197 kts 85°
2026-05-04 21:16 49.02607 2.62215 3102 ft 219 kts 84°
2026-05-04 21:17 49.02747 2.64651 3324 ft 245 kts 85°
2026-05-04 21:17 49.02904 2.67342 3865 ft 260 kts 85°
2026-05-04 21:17 49.03052 2.70109 4721 ft 263 kts 85°
2026-05-04 21:17 49.03285 2.72885 5564 ft 267 kts 72°
2026-05-04 21:18 49.04260 2.75282 6404 ft 271 kts 44°
2026-05-04 21:18 49.05863 2.76792 7245 ft 275 kts 18°
2026-05-04 21:18 49.07765 2.77019 8133 ft 280 kts 350°
2026-05-04 21:18 49.09591 2.75923 8991 ft 286 kts 330°
2026-05-04 21:19 49.11284 2.74259 9649 ft 291 kts 326°
2026-05-04 21:19 49.12950 2.72466 9937 ft 294 kts 325°
2026-05-04 21:19 49.14609 2.70642 9950 ft 294 kts 325°
2026-05-04 21:19 49.16270 2.68817 9955 ft 294 kts 325°
2026-05-04 21:20 49.17939 2.66993 9964 ft 295 kts 325°
2026-05-04 21:20 49.19612 2.65175 9960 ft 295 kts 326°
2026-05-04 21:20 49.21288 2.63363 9958 ft 295 kts 326°
2026-05-04 21:20 49.22963 2.61555 9942 ft 295 kts 326°
2026-05-04 21:21 49.24640 2.59751 9943 ft 294 kts 326°
2026-05-04 21:21 49.26313 2.57952 9941 ft 294 kts 326°
2026-05-04 21:21 49.27986 2.56153 9942 ft 293 kts 326°
2026-05-04 21:21 49.29654 2.54360 9948 ft 293 kts 327°
2026-05-04 21:22 49.31323 2.52564 9951 ft 292 kts 326°
2026-05-04 21:22 49.32975 2.50787 10002 ft 299 kts 326°
2026-05-04 21:22 49.34707 2.48924 10636 ft 308 kts 326°
2026-05-04 21:22 49.36488 2.47006 11541 ft 310 kts 326°
2026-05-04 21:23 49.38240 2.45117 12468 ft 313 kts 326°
2026-05-04 21:23 49.40028 2.43189 13411 ft 316 kts 326°
2026-05-04 21:23 49.41844 2.41227 14291 ft 321 kts 326°
2026-05-04 21:23 49.43683 2.39238 15167 ft 325 kts 326°
2026-05-04 21:24 49.45541 2.37227 16060 ft 328 kts 325°
2026-05-04 21:24 49.47417 2.35194 16963 ft 332 kts 325°
2026-05-04 21:24 49.49312 2.33140 17864 ft 335 kts 325°
2026-05-04 21:24 49.51226 2.31062 18707 ft 338 kts 324°
2026-05-04 21:25 49.53158 2.28963 19489 ft 341 kts 324°
2026-05-04 21:25 49.55109 2.26840 20267 ft 345 kts 324°
2026-05-04 21:25 49.57072 2.24702 21018 ft 349 kts 324°
2026-05-04 21:25 49.59075 2.22519 21723 ft 355 kts 324°
2026-05-04 21:26 49.61106 2.20304 22406 ft 360 kts 325°
2026-05-04 21:26 49.63144 2.18079 23095 ft 366 kts 325°
2026-05-04 21:26 49.65233 2.15795 23730 ft 371 kts 325°
2026-05-04 21:26 49.67352 2.13476 24307 ft 375 kts 324°
2026-05-04 21:27 49.69498 2.11124 24902 ft 379 kts 324°
2026-05-04 21:27 49.71662 2.08750 25469 ft 383 kts 323°
2026-05-04 21:27 49.73846 2.06350 25949 ft 384 kts 323°
2026-05-04 21:27 49.76026 2.03953 25948 ft 384 kts 323°
2026-05-04 21:28 49.78208 2.01550 25969 ft 384 kts 323°
2026-05-04 21:28 49.80387 1.99146 25972 ft 385 kts 323°
2026-05-04 21:28 49.82564 1.96742 25979 ft 385 kts 323°
2026-05-04 21:28 49.84747 1.94327 25979 ft 385 kts 323°
2026-05-04 21:29 49.86928 1.91915 25983 ft 385 kts 323°
2026-05-04 21:29 49.89083 1.89531 25982 ft 385 kts 323°
2026-05-04 21:29 49.91250 1.87084 25979 ft 385 kts 321°
2026-05-04 21:29 49.93357 1.84520 25982 ft 384 kts 320°
2026-05-04 21:30 49.95438 1.81916 25979 ft 384 kts 320°
2026-05-04 21:30 49.97521 1.79303 25987 ft 385 kts 320°
2026-05-04 21:30 49.99608 1.76697 25984 ft 385 kts 320°
2026-05-04 21:30 50.01704 1.74095 25982 ft 385 kts 320°
2026-05-04 21:31 50.05903 1.68904 25988 ft 385 kts 321°
2026-05-04 21:31 50.08128 1.66562 25980 ft 387 kts 331°
2026-05-04 21:31 50.10525 1.64752 25991 ft 388 kts 334°
2026-05-04 21:32 50.12978 1.63017 25989 ft 388 kts 335°
2026-05-04 21:32 50.15442 1.61290 25990 ft 388 kts 335°
2026-05-04 21:32 50.17904 1.59550 25994 ft 388 kts 334°
2026-05-04 21:32 50.20363 1.57793 25993 ft 388 kts 334°
2026-05-04 21:33 50.22812 1.56026 25997 ft 388 kts 334°
2026-05-04 21:33 50.25261 1.54248 26005 ft 388 kts 334°
2026-05-04 21:33 50.27714 1.52460 26006 ft 388 kts 334°
2026-05-04 21:33 50.30160 1.50673 26008 ft 388 kts 334°
2026-05-04 21:34 50.32580 1.48901 26009 ft 388 kts 334°
2026-05-04 21:34 50.35029 1.47107 26013 ft 389 kts 334°
2026-05-04 21:34 50.37483 1.45306 26014 ft 389 kts 334°
2026-05-04 21:34 50.39935 1.43504 26015 ft 389 kts 334°
2026-05-04 21:35 50.42386 1.41702 26017 ft 389 kts 333°
2026-05-04 21:35 50.44840 1.39899 26017 ft 389 kts 333°
2026-05-04 21:35 50.46461 1.38708 26026 ft 388 kts 333°
2026-05-04 21:35 50.49538 1.35874 26015 ft 386 kts 321°
2026-05-04 21:36 50.51518 1.33059 26019 ft 383 kts 310°
2026-05-04 21:36 50.53308 1.29955 26011 ft 383 kts 310°
2026-05-04 21:36 50.55088 1.26840 26005 ft 383 kts 310°
2026-05-04 21:36 50.56303 1.24742 26000 ft 384 kts 310°
2026-05-04 21:37 50.58091 1.21685 26001 ft 384 kts 311°
2026-05-04 21:37 50.59955 1.18662 26009 ft 385 kts 313°
2026-05-04 21:37 50.61853 1.15691 26006 ft 385 kts 313°
2026-05-04 21:37 50.63761 1.12722 26012 ft 385 kts 313°
2026-05-04 21:38 50.65665 1.09748 26017 ft 385 kts 313°
2026-05-04 21:38 50.67566 1.06760 26015 ft 385 kts 313°
2026-05-04 21:38 50.69457 1.03770 26021 ft 385 kts 313°
2026-05-04 21:38 50.71344 1.00775 26022 ft 385 kts 313°
2026-05-04 21:39 50.73230 0.97774 26020 ft 385 kts 313°
2026-05-04 21:39 50.75111 0.94775 26016 ft 385 kts 313°
2026-05-04 21:39 50.76996 0.91764 26028 ft 385 kts 313°
2026-05-04 21:39 50.78873 0.88761 26026 ft 384 kts 313°
2026-05-04 21:40 50.80753 0.85750 26026 ft 384 kts 313°
2026-05-04 21:40 50.82629 0.82745 26024 ft 384 kts 313°
2026-05-04 21:40 50.84482 0.79776 26020 ft 384 kts 313°
2026-05-04 21:40 50.86361 0.76763 26026 ft 384 kts 313°
2026-05-04 21:41 50.88240 0.73764 26036 ft 384 kts 313°
2026-05-04 21:41 50.90125 0.70760 26030 ft 384 kts 313°
2026-05-04 21:41 50.92004 0.67759 26026 ft 384 kts 312°
2026-05-04 21:41 50.93885 0.64752 26030 ft 383 kts 312°
2026-05-04 21:42 50.95765 0.61741 26026 ft 383 kts 312°
2026-05-04 21:42 50.97640 0.58729 26027 ft 383 kts 312°
2026-05-04 21:42 50.99502 0.55702 26022 ft 383 kts 312°
2026-05-04 21:42 51.01358 0.52664 26027 ft 383 kts 311°
2026-05-04 21:43 51.03212 0.49629 26026 ft 383 kts 312°
2026-05-04 21:43 51.05069 0.46591 26037 ft 383 kts 311°
2026-05-04 21:43 51.06904 0.43588 26026 ft 383 kts 311°
2026-05-04 21:43 51.08805 0.40596 26024 ft 384 kts 314°
2026-05-04 21:44 51.10741 0.37668 26029 ft 385 kts 314°
2026-05-04 21:44 51.12694 0.34740 26028 ft 386 kts 314°
2026-05-04 21:44 51.14647 0.31804 26024 ft 386 kts 314°
2026-05-04 21:44 51.16594 0.28856 26023 ft 386 kts 314°
2026-05-04 21:45 51.18538 0.25898 26024 ft 386 kts 314°
2026-05-04 21:45 51.20476 0.22936 26026 ft 386 kts 314°
2026-05-04 21:45 51.22418 0.19960 26027 ft 386 kts 314°
2026-05-04 21:45 51.24355 0.16986 26031 ft 386 kts 314°
2026-05-04 21:46 51.26293 0.14004 26025 ft 386 kts 313°
2026-05-04 21:46 51.28231 0.11022 26023 ft 386 kts 313°
2026-05-04 21:46 51.30161 0.08052 26030 ft 386 kts 313°
2026-05-04 21:46 51.32098 0.05071 26029 ft 386 kts 314°
2026-05-04 21:47 51.34180 0.02357 26042 ft 389 kts 324°
2026-05-04 21:47 51.36493 0.00101 26050 ft 388 kts 327°
2026-05-04 21:47 51.38826 -0.02061 26046 ft 388 kts 328°
2026-05-04 21:47 51.41173 -0.04223 26040 ft 388 kts 328°
2026-05-04 21:48 51.43510 -0.06395 26046 ft 388 kts 328°
2026-05-04 21:48 51.45840 -0.08584 26047 ft 388 kts 328°
2026-05-04 21:48 51.48163 -0.10785 26047 ft 388 kts 327°
2026-05-04 21:48 51.50485 -0.12997 26047 ft 388 kts 327°
2026-05-04 21:49 51.52806 -0.15215 26047 ft 388 kts 327°
2026-05-04 21:49 51.55095 -0.17408 26050 ft 388 kts 327°
2026-05-04 21:49 51.57415 -0.19633 26049 ft 388 kts 327°
2026-05-04 21:49 51.59733 -0.21860 25926 ft 390 kts 327°
2026-05-04 21:50 51.62076 -0.24111 25539 ft 389 kts 327°
2026-05-04 21:50 51.64389 -0.26334 25114 ft 386 kts 328°
2026-05-04 21:50 51.66685 -0.28541 24691 ft 383 kts 328°
2026-05-04 21:50 51.68976 -0.30734 24268 ft 380 kts 328°
2026-05-04 21:51 51.71244 -0.32901 23854 ft 378 kts 328°
2026-05-04 21:51 51.73498 -0.35060 23422 ft 375 kts 328°
2026-05-04 21:51 51.75748 -0.37218 22595 ft 382 kts 328°
2026-05-04 21:51 51.78015 -0.39397 22222 ft 376 kts 328°
2026-05-04 21:52 51.80254 -0.41547 21802 ft 372 kts 328°
2026-05-04 21:52 51.82459 -0.43677 21548 ft 368 kts 328°
2026-05-04 21:52 51.84666 -0.45816 21281 ft 372 kts 328°
2026-05-04 21:52 51.86894 -0.47982 20869 ft 373 kts 328°
2026-05-04 21:53 51.89109 -0.50139 20416 ft 370 kts 328°
2026-05-04 21:53 51.91275 -0.52250 19977 ft 366 kts 328°
2026-05-04 21:53 51.93448 -0.54373 19540 ft 363 kts 328°
2026-05-04 21:53 51.95604 -0.56481 19097 ft 360 kts 328°
2026-05-04 21:54 51.97741 -0.58573 18659 ft 358 kts 328°
2026-05-04 21:54 51.99864 -0.60655 18207 ft 355 kts 328°
2026-05-04 21:54 52.01973 -0.62724 17725 ft 353 kts 328°
2026-05-04 21:54 52.04066 -0.64781 17232 ft 350 kts 328°
2026-05-04 21:55 52.06138 -0.66819 16805 ft 346 kts 327°
2026-05-04 21:55 52.08191 -0.68841 16365 ft 343 kts 327°
2026-05-04 21:55 52.10220 -0.70842 15933 ft 340 kts 327°
2026-05-04 21:55 52.12237 -0.72834 15503 ft 337 kts 327°
2026-05-04 21:56 52.14237 -0.74811 15068 ft 335 kts 328°
2026-05-04 21:56 52.16217 -0.76771 14655 ft 332 kts 328°
2026-05-04 21:56 52.18188 -0.78725 14230 ft 330 kts 328°
2026-05-04 21:56 52.20141 -0.80662 13805 ft 328 kts 328°
2026-05-04 21:57 52.22081 -0.82586 13334 ft 326 kts 328°
2026-05-04 21:57 52.23985 -0.84473 12894 ft 323 kts 328°
2026-05-04 21:57 52.25899 -0.86373 12458 ft 321 kts 328°
2026-05-04 21:57 52.27801 -0.88253 12042 ft 318 kts 328°
2026-05-04 21:58 52.29688 -0.90118 11627 ft 316 kts 327°
2026-05-04 21:58 52.31559 -0.91972 11216 ft 313 kts 327°
2026-05-04 21:58 52.33417 -0.93818 10810 ft 311 kts 327°
2026-05-04 21:58 52.35262 -0.95652 10470 ft 307 kts 327°
2026-05-04 21:59 52.37058 -0.97437 10340 ft 296 kts 327°
2026-05-04 21:59 52.38796 -0.99165 10202 ft 287 kts 327°
2026-05-04 21:59 52.40481 -1.00816 10077 ft 278 kts 331°
2026-05-04 21:59 52.42320 -1.01700 9766 ft 278 kts 354°
2026-05-04 22:00 52.44254 -1.01756 9441 ft 277 kts 359°
2026-05-04 22:00 52.46176 -1.01683 9112 ft 276 kts
2026-05-04 22:00 52.48087 -1.01591 8790 ft 274 kts
2026-05-04 22:00 52.49992 -1.01610 8462 ft 272 kts 356°
2026-05-04 22:01 52.51866 -1.01749 8087 ft 273 kts 356°
2026-05-04 22:01 52.53758 -1.01911 7766 ft 272 kts 356°
2026-05-04 22:01 52.55640 -1.02086 7448 ft 270 kts 356°
2026-05-04 22:01 52.57509 -1.02267 7132 ft 268 kts 356°
2026-05-04 22:02 52.59368 -1.02455 6820 ft 267 kts 356°
2026-05-04 22:02 52.61219 -1.02646 6507 ft 265 kts 356°
2026-05-04 22:02 52.63053 -1.02842 6178 ft 264 kts 355°
2026-05-04 22:02 52.64879 -1.03049 5867 ft 262 kts 355°
2026-05-04 22:03 52.66683 -1.03261 5551 ft 256 kts 355°
2026-05-04 22:03 52.68428 -1.03475 5244 ft 246 kts 355°
2026-05-04 22:03 52.70097 -1.03692 4990 ft 235 kts 355°
2026-05-04 22:03 52.71700 -1.03912 4705 ft 227 kts 355°
2026-05-04 22:04 52.73226 -1.04128 4427 ft 219 kts 355°
2026-05-04 22:04 52.74713 -1.04340 4203 ft 210 kts 355°
2026-05-04 22:04 52.76140 -1.04543 3943 ft 201 kts 355°
2026-05-04 22:04 52.77510 -1.04735 3713 ft 194 kts 355°
2026-05-04 22:05 52.78828 -1.04919 3503 ft 186 kts 355°
2026-05-04 22:05 52.80040 -1.05473 3283 ft 181 kts 326°
2026-05-04 22:05 52.80849 -1.07017 3130 ft 178 kts 307°
2026-05-04 22:05 52.81539 -1.08713 3015 ft 178 kts 305°
2026-05-04 22:06 52.82166 -1.10534 2681 ft 186 kts 298°
2026-05-04 22:06 52.82725 -1.12459 2391 ft 178 kts 296°
2026-05-04 22:06 52.83160 -1.14275 2141 ft 166 kts 289°
2026-05-04 22:06 52.83364 -1.16136 1816 ft 160 kts 274°
2026-05-04 22:07 52.83350 -1.17913 1626 ft 148 kts 269°
2026-05-04 22:07 52.83320 -1.19537 1469 ft 136 kts 271°
2026-05-04 22:07 52.83307 -1.21056 1387 ft 130 kts 270°
2026-05-04 22:07 52.83269 -1.22569 1287 ft 134 kts 268°
2026-05-04 22:08 52.83247 -1.24113 1179 ft 134 kts 270°
2026-05-04 22:08 52.83223 -1.25664 992 ft 137 kts 268°
2026-05-04 22:08 52.83197 -1.27243 828 ft 139 kts 269°
2026-05-04 22:08 52.83168 -1.28859 624 ft 142 kts 268°
2026-05-04 22:09 52.83139 -1.30501 398 ft 143 kts 268°
2026-05-04 22:09 52.83110 -1.32115 308 ft 131 kts 269°
2026-05-04 22:09 52.83089 -1.33415 306 ft 95 kts 268°
2026-05-04 22:09 52.83073 -1.34304 302 ft 58 kts 269°
2026-05-04 22:10 52.83054 -1.34619 302 ft 16 kts 237°
2026-05-04 22:10 52.82961 -1.34666 301 ft 13 kts 179°
2026-05-04 22:10 52.82914 -1.34639 303 ft 7 kts 131°
2026-05-04 22:10 52.82905 -1.34562 305 ft 7 kts 89°
2026-05-04 22:11 52.82907 -1.34483 303 ft 7 kts 88°
2026-05-04 22:11 52.82883 -1.34423 305 ft 7 kts 161°
2026-05-04 22:11 52.82833 -1.34474 301 ft 10 kts 258°
2026-05-04 22:11 52.82832 -1.34593 303 ft 10 kts 271°
2026-05-04 22:12 52.82833 -1.34710 301 ft 10 kts 265°
2026-05-04 22:12 52.82811 -1.34772 304 ft 7 kts 191°
2026-05-04 22:12 52.82774 -1.34772 299 ft 4 kts 178°
2026-05-04 22:12 52.82750 -1.34770 303 ft 1 kts 178°
2026-05-04 22:13 52.82741 -1.34770 303 ft 0 kts 178°